Newton, NJ

1:29 AM EST on January 19, 2017 (GMT -0500)
Andover

Weather History for K12N - October, 2013

Change the Weather History Date:

Tuesday, October 15, 2013

  Actual Average (KFWN) Record (KFWN)
Temperature  
Mean Temperature 58 °F -  
Max Temperature 73 °F 63 °F 83 °F (1956)
Min Temperature 44 °F 39 °F 23 °F (1981)
Degree Days  
Heating Degree Days 7    
Growing Degree Days 8 (Base 50)    
Moisture  
Dew Point 48 °F    
Average Humidity 75    
Maximum Humidity 97    
Minimum Humidity 48    
Precipitation  
Precipitation 0.00 in - - ()
Sea Level Pressure  
Sea Level Pressure 30.20 in    
Wind  
Wind Speed 1 mph (SSE)    
Max Wind Speed 6 mph    
Max Gust Speed -    
Averages and records for this station are not official NWS values.
T = Trace of Precipitation, MM = Missing Value Source: NWS Daily Summary

Daily Weather History Graph

Daily Weather History Graph

Search for Another Location

Airport or City:

Trip Planner

Search our weather history database for the weather conditions in past years. The results will help you decide how hot, cold, wet, or windy it might be!

Date:

Astronomy

Oct. 15, 2013 Rise Set
Actual Time 7:10 AM EDT 6:18 PM EDT
Civil Twilight 6:42 AM EDT 6:45 PM EDT
Nautical Twilight 6:11 AM EDT 7:17 PM EDT
Astronomical Twilight 5:39 AM EDT 7:49 PM EDT
Moon 4:23 PM EDT (10/15) 3:28 AM EDT (10/15)
Length of Visible Light 12h 02m
Length of Day
11h 07m
Waxing Gibbous, 87% of the Moon is Illuminated
Oct 15
Waxing Gibbous
Oct 18
Full
Oct 26
Last Quarter
Nov 3
New
Nov 10
First Quarter

Hourly Weather History & Observations

Time (EDT) Temp. Dew Point Humidity Pressure Visibility Wind Dir Wind Speed Gust Speed Precip Events Conditions
12:54 AM 48.0 °F 46.0 °F 93% 30.27 in - Calm Calm - N/A   Unknown
1:54 AM 48.0 °F 45.0 °F 89% 30.26 in - Calm Calm - N/A   Unknown
2:54 AM 46.9 °F 45.0 °F 93% 30.26 in - Calm Calm - N/A   Unknown
3:54 AM 46.0 °F 44.1 °F 93% 30.25 in - Calm Calm - N/A   Unknown
4:54 AM 46.0 °F 44.1 °F 93% 30.24 in - Calm Calm - N/A   Unknown
5:54 AM 45.0 °F 44.1 °F 97% 30.24 in - Calm Calm - N/A   Unknown
6:54 AM 44.1 °F 43.0 °F 96% 30.24 in - Calm Calm - N/A   Unknown
7:54 AM 46.0 °F 44.1 °F 93% 30.26 in - Calm Calm - N/A   Unknown
8:54 AM 50.0 °F 48.0 °F 93% 30.26 in - Calm Calm - N/A   Unknown
9:54 AM 57.0 °F 50.0 °F 77% 30.26 in - Calm Calm - N/A   Unknown
10:54 AM 64.0 °F 52.0 °F 65% 30.24 in - Calm Calm - N/A   Unknown
11:54 AM 68.0 °F 52.0 °F 56% 30.22 in - Calm Calm - N/A   Unknown
12:54 PM 70.0 °F 52.0 °F 53% 30.19 in - Variable 3.5 mph - N/A   Unknown
1:54 PM 72.0 °F 51.1 °F 48% 30.17 in - SSE 4.6 mph - N/A   Unknown
2:54 PM 72.0 °F 51.1 °F 48% 30.15 in - South 5.8 mph - N/A   Unknown
3:54 PM 71.1 °F 51.1 °F 49% 30.13 in - Variable 3.5 mph - N/A   Unknown
4:54 PM 70.0 °F 51.1 °F 51% 30.13 in - SSE 3.5 mph - N/A   Unknown
5:54 PM 68.0 °F 50.0 °F 52% 30.14 in - Calm Calm - N/A   Unknown
6:54 PM 61.0 °F 52.0 °F 72% 30.16 in - Calm Calm - N/A   Unknown
7:54 PM 57.9 °F 48.9 °F 72% 30.17 in - Calm Calm - N/A   Unknown
8:54 PM 55.0 °F 46.9 °F 74% 30.16 in - Calm Calm - N/A   Unknown
9:54 PM 53.1 °F 45.0 °F 74% 30.15 in - Calm Calm - N/A   Unknown
10:54 PM 50.0 °F 46.0 °F 86% 30.15 in - Calm Calm - N/A   Unknown
11:54 PM 50.0 °F 46.0 °F 86% 30.13 in - Calm Calm - N/A   Unknown